HAWKSAT1
1 35003U 09028C 09364.76882664 .00006274 00000-0 14794-3 0 01909
2 35003 040.4610 141.3592 0025013 198.1058 161.8868 15.41908647034680
CP6
1 35004U 09028D 09364.75791109 .00007309 00000-0 17015-3 0 1721
2 35004 040.4609 141.2846 0024204 198.3134 161.6815 15.42149128 34679
AEROCUB3
1 35005U 09028E 09364.78683145 .00013122 00000-0 30112-3 0 1784
2 35005 040.4720 141.7562 0023853 195.7055 164.3023 15.42121926 34673
DRAGNSAT
1 35690U 09038B 09365.43509443 .00053127 12242-4 16692-3 0 1631
2 35690 051.6371 001.0839 0003544 004.5183 355.5886 15.91903095 24419
POLLUX
1 35693U 09038E 09365.33495068 .00049614 00000-0 16181-3 0 1667
2 35693 051.6382 002.6913 0000645 357.5440 002.5183 15.90152568 24352
CASTOR
1 35694U 09038F 09365.34632482 .00018984 00000-0 82797-4 0 1452
2 35694 051.6412 005.0943 0001792 261.3449 098.7189 15.84793086 24321
METEOR-M
1 35865U 09049A 09364.80516855 .00000176 00000-0 10000-3 0 909
2 35865 098.7849 054.6077 0002978 119.0704 241.0704 14.21828349 14792
